{"data":{"norad_id":56886,"intl_designator":"2023-083L","name":"STARLINK-5496","alt_names":[],"object_type":"PAYLOAD","status":"ACTIVE","operator":null,"country":"US","launch_date":"2023-06-12","launch_site_code":"AFETR","launch_vehicle":null,"mission":null,"orbit_class":"UNKNOWN","rcs_meters":null,"size_class":null,"mass_kg":null,"dimensions":null,"purposes":["comms"],"wikipedia_slug":null,"has_3d_model":false,"image_url":null,"decayed_at":null,"tle_current":{"epoch":"2026-05-24T23:48:33.780960Z","epoch_age_seconds":86441,"freshness":"FRESH","line1":"1 56886U 23083L   26144.99205765 -.00001507  00000+0 -45251-4 0  9994","line2":"2 56886  43.0042  13.9529 0001181 263.8122  96.2596 15.27582365163306","mean_motion":15.27582365,"eccentricity":0.0001181,"inclination_deg":43.0042,"raan_deg":13.9529,"arg_perigee_deg":263.8122,"mean_anomaly_deg":96.2596,"bstar":-4.5251e-5,"rev_number":16330,"period_min":94.266602770058,"perigee_km":482.23170914639,"apogee_km":483.85231962958,"semimajor_km":6861.179014388,"source":"CELESTRAK","updated_at":"2026-05-25T13:38:18.168782Z"}}}